Back to catalog

ARIANE 5 R/B

AliveGTO
NORAD 28904·ROCKET BODY·🇫🇷 France

Launched Nov 16, 2005 from Guiana Space Centre

Loading…

TLE

FreshSource: Space-Track

Epoch: Sep 14, 2026, 12:59 UTC

1 28904U 05046C   26257.54142035 -.00000043  00000-0  23495-3 0  9998
2 28904   7.3318  67.1755 7189512  47.4052 354.2038  2.30001349174338

Track ARIANE 5 R/B in real time with AllMySat

Download on the App Store